Year,Month,Day,Hour,Minute,Value (Times are PST for temperature in C)
2018,09,28,00,00,11.20
2018,09,28,00,01,11.20
2018,09,28,00,02,11.20
2018,09,28,00,03,11.20
2018,09,28,00,04,11.20
2018,09,28,00,05,11.20
2018,09,28,00,06,11.20
2018,09,28,00,07,11.20
2018,09,28,00,08,11.10
2018,09,28,00,09,11.10
2018,09,28,00,10,11.10
2018,09,28,00,11,11.10
2018,09,28,00,12,11.10
2018,09,28,00,13,11.10
2018,09,28,00,14,11.10
2018,09,28,00,15,11.10
2018,09,28,00,16,11.10
2018,09,28,00,17,11.10
2018,09,28,00,18,11.10
2018,09,28,00,19,11.00
2018,09,28,00,20,11.00
2018,09,28,00,21,11.00
2018,09,28,00,22,11.00
2018,09,28,00,23,11.00
2018,09,28,00,24,10.90
2018,09,28,00,25,10.90
2018,09,28,00,26,10.90
2018,09,28,00,27,10.90
2018,09,28,00,28,10.90
2018,09,28,00,29,10.90
2018,09,28,00,30,10.90
2018,09,28,00,31,10.80
2018,09,28,00,32,10.80
2018,09,28,00,33,10.80
2018,09,28,00,34,10.80
2018,09,28,00,35,10.80
2018,09,28,00,36,10.80
2018,09,28,00,37,10.80
2018,09,28,00,38,10.80
2018,09,28,00,39,10.80
2018,09,28,00,40,10.80
2018,09,28,00,41,10.80
2018,09,28,00,42,10.80
2018,09,28,00,43,10.80
2018,09,28,00,44,10.80
2018,09,28,00,45,10.80
2018,09,28,00,46,10.80
2018,09,28,00,47,10.80
2018,09,28,00,48,10.80
2018,09,28,00,49,10.80
2018,09,28,00,50,10.80
2018,09,28,00,51,10.80
2018,09,28,00,52,10.80
2018,09,28,00,53,10.80
2018,09,28,00,54,10.80
2018,09,28,00,55,10.80
2018,09,28,00,56,10.80
2018,09,28,00,57,10.80
2018,09,28,00,58,10.80
2018,09,28,00,59,10.80
2018,09,28,01,00,10.80
2018,09,28,01,01,10.90
2018,09,28,01,02,11.00
2018,09,28,01,03,11.00
2018,09,28,01,04,11.00
2018,09,28,01,05,11.10
2018,09,28,01,06,11.20
2018,09,28,01,07,11.30
2018,09,28,01,08,11.40
2018,09,28,01,09,11.50
2018,09,28,01,10,11.60
2018,09,28,01,11,11.70
2018,09,28,01,12,11.80
2018,09,28,01,13,11.90
2018,09,28,01,14,11.90
2018,09,28,01,15,12.00
2018,09,28,01,16,12.10
2018,09,28,01,17,12.10
2018,09,28,01,18,12.20
2018,09,28,01,19,12.20
2018,09,28,01,20,12.30
2018,09,28,01,21,12.30
2018,09,28,01,22,12.30
2018,09,28,01,23,12.40
2018,09,28,01,24,12.40
2018,09,28,01,25,12.40
2018,09,28,01,26,12.40
2018,09,28,01,27,12.50
2018,09,28,01,28,12.50
2018,09,28,01,29,12.50
2018,09,28,01,30,12.60
2018,09,28,01,31,12.60
2018,09,28,01,32,12.60
2018,09,28,01,33,12.60
2018,09,28,01,34,12.70
2018,09,28,01,35,12.70
2018,09,28,01,36,12.70
2018,09,28,01,37,12.80
2018,09,28,01,38,12.80
2018,09,28,01,39,12.80
2018,09,28,01,40,12.90
2018,09,28,01,41,12.90
2018,09,28,01,42,12.90
2018,09,28,01,43,13.00
2018,09,28,01,44,13.00
2018,09,28,01,45,13.10
2018,09,28,01,46,13.10
2018,09,28,01,47,13.10
2018,09,28,01,48,13.10
2018,09,28,01,49,13.20
2018,09,28,01,50,13.20
2018,09,28,01,51,13.20
2018,09,28,01,52,13.20
2018,09,28,01,53,13.20
2018,09,28,01,54,13.20
2018,09,28,01,55,13.20
2018,09,28,01,56,13.30
2018,09,28,01,57,13.30
2018,09,28,01,58,13.30
2018,09,28,01,59,13.30
2018,09,28,02,00,13.30
2018,09,28,02,01,13.30
2018,09,28,02,02,13.30
2018,09,28,02,03,13.30
2018,09,28,02,04,13.30
2018,09,28,02,05,13.30
2018,09,28,02,06,13.30
2018,09,28,02,07,13.30
2018,09,28,02,08,13.40
2018,09,28,02,09,13.40
2018,09,28,02,10,13.40
2018,09,28,02,11,13.40
2018,09,28,02,12,13.40
2018,09,28,02,13,13.40
2018,09,28,02,14,13.50
2018,09,28,02,15,13.50
2018,09,28,02,16,13.50
2018,09,28,02,17,13.50
2018,09,28,02,18,13.50
2018,09,28,02,19,13.40
2018,09,28,02,20,13.40
2018,09,28,02,21,13.40
2018,09,28,02,22,13.40
2018,09,28,02,23,13.40
2018,09,28,02,24,13.40
2018,09,28,02,25,13.40
2018,09,28,02,26,13.40
2018,09,28,02,27,13.30
2018,09,28,02,28,13.30
2018,09,28,02,29,13.30
2018,09,28,02,30,13.30
2018,09,28,02,31,13.30
2018,09,28,02,32,13.30
2018,09,28,02,33,13.30
2018,09,28,02,34,13.30
2018,09,28,02,35,13.30
2018,09,28,02,36,13.30
2018,09,28,02,37,13.30
2018,09,28,02,38,13.30
2018,09,28,02,39,13.30
2018,09,28,02,40,13.30
2018,09,28,02,41,13.30
2018,09,28,02,42,13.20
2018,09,28,02,43,13.20
2018,09,28,02,44,13.20
2018,09,28,02,45,13.20
2018,09,28,02,46,13.20
2018,09,28,02,47,13.20
2018,09,28,02,48,13.20
2018,09,28,02,49,13.20
2018,09,28,02,50,13.10
2018,09,28,02,51,13.10
2018,09,28,02,52,13.10
2018,09,28,02,53,13.10
2018,09,28,02,54,13.10
2018,09,28,02,55,13.10
2018,09,28,02,56,13.00
2018,09,28,02,57,13.00
2018,09,28,02,58,13.00
2018,09,28,02,59,13.00
2018,09,28,03,00,13.00
2018,09,28,03,01,13.00
2018,09,28,03,02,13.00
2018,09,28,03,03,12.90
2018,09,28,03,04,12.90
2018,09,28,03,05,12.90
2018,09,28,03,06,12.90
2018,09,28,03,07,12.90
2018,09,28,03,08,12.90
2018,09,28,03,09,12.90
2018,09,28,03,10,12.80
2018,09,28,03,11,12.80
2018,09,28,03,12,12.80
2018,09,28,03,13,12.80
2018,09,28,03,14,12.80
2018,09,28,03,15,12.80
2018,09,28,03,16,12.80
2018,09,28,03,17,12.70
2018,09,28,03,18,12.70
2018,09,28,03,19,12.70
2018,09,28,03,20,12.70
2018,09,28,03,21,12.70
2018,09,28,03,22,12.70
2018,09,28,03,23,12.70
2018,09,28,03,24,12.70
2018,09,28,03,25,12.70
2018,09,28,03,26,12.70
2018,09,28,03,27,12.70
2018,09,28,03,28,12.70
2018,09,28,03,29,12.60
2018,09,28,03,30,12.60
2018,09,28,03,31,12.60
2018,09,28,03,32,12.60
2018,09,28,03,33,12.60
2018,09,28,03,34,12.60
2018,09,28,03,35,12.60
2018,09,28,03,36,12.60
2018,09,28,03,37,12.60
2018,09,28,03,38,12.60
2018,09,28,03,39,12.60
2018,09,28,03,40,12.70
2018,09,28,03,41,12.70
2018,09,28,03,42,12.70
2018,09,28,03,43,12.70
2018,09,28,03,44,12.70
2018,09,28,03,45,12.80
2018,09,28,03,46,12.80
2018,09,28,03,47,12.80
2018,09,28,03,48,12.80
2018,09,28,03,49,12.80
2018,09,28,03,50,12.80
2018,09,28,03,51,12.80
2018,09,28,03,52,12.80
2018,09,28,03,53,12.90
2018,09,28,03,54,12.80
2018,09,28,03,55,12.80
2018,09,28,03,56,12.90
2018,09,28,03,57,12.90
2018,09,28,03,58,12.90
2018,09,28,03,59,12.90
2018,09,28,04,00,12.90
2018,09,28,04,01,12.90
2018,09,28,04,02,12.90
2018,09,28,04,03,12.80
2018,09,28,04,04,12.80
2018,09,28,04,05,12.90
2018,09,28,04,06,12.90
2018,09,28,04,07,12.90
2018,09,28,04,08,12.90
2018,09,28,04,09,12.90
2018,09,28,04,10,12.90
2018,09,28,04,11,12.90
2018,09,28,04,12,12.90
2018,09,28,04,13,12.90
2018,09,28,04,14,12.90
2018,09,28,04,15,12.90
2018,09,28,04,16,12.90
2018,09,28,04,17,12.90
2018,09,28,04,18,12.80
2018,09,28,04,19,12.80
2018,09,28,04,20,12.80
2018,09,28,04,21,12.80
2018,09,28,04,22,12.80
2018,09,28,04,23,12.80
2018,09,28,04,24,12.80
2018,09,28,04,25,12.80
2018,09,28,04,26,12.80
2018,09,28,04,27,12.80
2018,09,28,04,28,12.80
2018,09,28,04,29,12.80
2018,09,28,04,30,12.70
2018,09,28,04,31,12.70
2018,09,28,04,32,12.70
2018,09,28,04,33,12.70
2018,09,28,04,34,12.70
2018,09,28,04,35,12.70
2018,09,28,04,36,12.70
2018,09,28,04,37,12.60
2018,09,28,04,38,12.60
2018,09,28,04,39,12.60
2018,09,28,04,40,12.60
2018,09,28,04,41,12.60
2018,09,28,04,42,12.60
2018,09,28,04,43,12.60
2018,09,28,04,44,12.60
2018,09,28,04,45,12.60
2018,09,28,04,46,12.60
2018,09,28,04,47,12.60
2018,09,28,04,48,12.60
2018,09,28,04,49,12.60
2018,09,28,04,50,12.60
2018,09,28,04,51,12.60
2018,09,28,04,52,12.60
2018,09,28,04,53,12.60
2018,09,28,04,54,12.60
2018,09,28,04,55,12.60
2018,09,28,04,56,12.60
2018,09,28,04,57,12.70
2018,09,28,04,58,12.70
2018,09,28,04,59,12.70
2018,09,28,05,00,12.70
2018,09,28,05,01,12.70
2018,09,28,05,02,12.70
2018,09,28,05,03,12.70
2018,09,28,05,04,12.70
2018,09,28,05,05,12.70
2018,09,28,05,06,12.70
2018,09,28,05,07,12.70
2018,09,28,05,08,12.70
2018,09,28,05,09,12.70
2018,09,28,05,10,12.70
2018,09,28,05,11,12.60
2018,09,28,05,12,12.60
2018,09,28,05,13,12.60
2018,09,28,05,14,12.60
2018,09,28,05,15,12.60
2018,09,28,05,16,12.60
2018,09,28,05,17,12.60
2018,09,28,05,18,12.60
2018,09,28,05,19,12.60
2018,09,28,05,20,12.50
2018,09,28,05,21,12.50
2018,09,28,05,22,12.50
2018,09,28,05,23,12.50
2018,09,28,05,24,12.50
2018,09,28,05,25,12.40
2018,09,28,05,26,12.40
2018,09,28,05,27,12.40
2018,09,28,05,28,12.40
2018,09,28,05,29,12.40
2018,09,28,05,30,12.40
2018,09,28,05,31,12.30
2018,09,28,05,32,12.30
2018,09,28,05,33,12.30
2018,09,28,05,34,12.30
2018,09,28,05,35,12.30
2018,09,28,05,36,12.30
2018,09,28,05,37,12.30
2018,09,28,05,38,12.30
2018,09,28,05,39,12.30
2018,09,28,05,40,12.30
2018,09,28,05,41,12.30
2018,09,28,05,42,12.30
2018,09,28,05,43,12.20
2018,09,28,05,44,12.20
2018,09,28,05,45,12.20
2018,09,28,05,46,12.20
2018,09,28,05,47,12.20
2018,09,28,05,48,12.20
2018,09,28,05,49,12.20
2018,09,28,05,50,12.20
2018,09,28,05,51,12.20
2018,09,28,05,52,12.20
2018,09,28,05,53,12.20
2018,09,28,05,54,12.20
2018,09,28,05,55,12.20
2018,09,28,05,56,12.20
2018,09,28,05,57,12.20
2018,09,28,05,58,12.20
2018,09,28,05,59,12.10
2018,09,28,06,00,12.10
2018,09,28,06,01,12.10
2018,09,28,06,02,12.10
2018,09,28,06,03,12.10
2018,09,28,06,04,12.10
2018,09,28,06,05,12.10
2018,09,28,06,06,12.10
2018,09,28,06,07,12.10
2018,09,28,06,08,12.00
2018,09,28,06,09,12.00
2018,09,28,06,10,12.00
2018,09,28,06,11,12.00
2018,09,28,06,12,12.00
2018,09,28,06,13,12.00
2018,09,28,06,14,11.90
2018,09,28,06,15,11.90
2018,09,28,06,16,11.90
2018,09,28,06,17,11.90
2018,09,28,06,18,11.90
2018,09,28,06,19,11.90
2018,09,28,06,20,11.90
2018,09,28,06,21,11.90
2018,09,28,06,22,11.90
2018,09,28,06,23,12.00
2018,09,28,06,24,12.00
2018,09,28,06,25,12.00
2018,09,28,06,26,12.00
2018,09,28,06,27,12.10
2018,09,28,06,28,12.10
2018,09,28,06,29,12.10
2018,09,28,06,30,12.10
2018,09,28,06,31,12.20
2018,09,28,06,32,12.20
2018,09,28,06,33,12.20
2018,09,28,06,34,12.20
2018,09,28,06,35,12.20
2018,09,28,06,36,12.30
2018,09,28,06,37,12.30
2018,09,28,06,38,12.30
2018,09,28,06,39,12.30
2018,09,28,06,40,12.30
2018,09,28,06,41,12.30
2018,09,28,06,42,12.40
2018,09,28,06,43,12.40
2018,09,28,06,44,12.40
2018,09,28,06,45,12.40
2018,09,28,06,46,12.50
2018,09,28,06,47,12.50
2018,09,28,06,48,12.50
2018,09,28,06,49,12.50
2018,09,28,06,50,12.50
2018,09,28,06,51,12.60
2018,09,28,06,52,12.60
2018,09,28,06,53,12.60
2018,09,28,06,54,12.60
2018,09,28,06,55,12.60
2018,09,28,06,56,12.50
2018,09,28,06,57,12.50
2018,09,28,06,58,12.50
2018,09,28,06,59,12.50
2018,09,28,07,00,12.50
2018,09,28,07,01,12.50
2018,09,28,07,02,12.50
2018,09,28,07,03,12.50
2018,09,28,07,04,12.50
2018,09,28,07,05,12.50
2018,09,28,07,06,12.50
2018,09,28,07,07,12.60
2018,09,28,07,08,12.60
2018,09,28,07,09,12.60
2018,09,28,07,10,12.60
2018,09,28,07,11,12.60
2018,09,28,07,12,12.60
2018,09,28,07,13,12.60
2018,09,28,07,14,12.60
2018,09,28,07,15,12.70
2018,09,28,07,16,12.70
2018,09,28,07,17,12.70
2018,09,28,07,18,12.70
2018,09,28,07,19,12.70
2018,09,28,07,20,12.70
2018,09,28,07,21,12.80
2018,09,28,07,22,12.70
2018,09,28,07,23,12.70
2018,09,28,07,24,12.70
2018,09,28,07,25,12.70
2018,09,28,07,26,12.80
2018,09,28,07,27,12.70
2018,09,28,07,28,12.70
2018,09,28,07,29,12.70
2018,09,28,07,30,12.70
2018,09,28,07,31,12.70
2018,09,28,07,32,12.70
2018,09,28,07,33,12.70
2018,09,28,07,34,12.60
2018,09,28,07,35,12.60
2018,09,28,07,36,12.60
2018,09,28,07,37,12.60
2018,09,28,07,38,12.60
2018,09,28,07,39,12.60
2018,09,28,07,40,12.50
2018,09,28,07,41,12.50
2018,09,28,07,42,12.50
2018,09,28,07,43,12.50
2018,09,28,07,44,12.40
2018,09,28,07,45,12.40
2018,09,28,07,46,12.40
2018,09,28,07,47,12.40
2018,09,28,07,48,12.40
2018,09,28,07,49,12.40
2018,09,28,07,50,12.40
2018,09,28,07,51,12.30
2018,09,28,07,52,12.30
2018,09,28,07,53,12.30
2018,09,28,07,54,12.30
2018,09,28,07,55,12.30
2018,09,28,07,56,12.30
2018,09,28,07,57,12.30
2018,09,28,07,58,12.30
2018,09,28,07,59,12.30
2018,09,28,08,00,12.30
2018,09,28,08,01,12.30
2018,09,28,08,02,12.30
2018,09,28,08,03,12.30
2018,09,28,08,04,12.30
2018,09,28,08,05,12.30
2018,09,28,08,06,12.30
2018,09,28,08,07,12.30
2018,09,28,08,08,12.40
2018,09,28,08,09,12.40
2018,09,28,08,10,12.50
2018,09,28,08,11,12.50
2018,09,28,08,12,12.60
2018,09,28,08,13,12.70
2018,09,28,08,14,12.80
2018,09,28,08,15,12.80
2018,09,28,08,16,12.90
2018,09,28,08,17,12.90
2018,09,28,08,18,13.00
2018,09,28,08,19,13.10
2018,09,28,08,20,13.20
2018,09,28,08,21,13.30
2018,09,28,08,22,13.30
2018,09,28,08,23,13.40
2018,09,28,08,24,13.50
2018,09,28,08,25,13.60
2018,09,28,08,26,13.70
2018,09,28,08,27,13.80
2018,09,28,08,28,13.80
2018,09,28,08,29,13.80
2018,09,28,08,30,13.90
2018,09,28,08,31,13.90
2018,09,28,08,32,14.00
2018,09,28,08,33,14.10
2018,09,28,08,34,14.20
2018,09,28,08,35,14.20
2018,09,28,08,36,14.30
2018,09,28,08,37,14.30
2018,09,28,08,38,14.40
2018,09,28,08,39,14.40
2018,09,28,08,40,14.50
2018,09,28,08,41,14.60
2018,09,28,08,42,14.60
2018,09,28,08,43,14.70
2018,09,28,08,44,14.80
2018,09,28,08,45,14.90
2018,09,28,08,46,14.90
2018,09,28,08,47,15.00
2018,09,28,08,48,15.00
2018,09,28,08,49,15.10
2018,09,28,08,50,15.10
2018,09,28,08,51,15.20
2018,09,28,08,52,15.20
2018,09,28,08,53,15.30
2018,09,28,08,54,15.30
2018,09,28,08,55,15.30
2018,09,28,08,56,15.30
2018,09,28,08,57,15.40
2018,09,28,08,58,15.40
2018,09,28,08,59,15.40
2018,09,28,09,00,15.40
2018,09,28,09,01,15.50
2018,09,28,09,02,15.50
2018,09,28,09,03,15.50
2018,09,28,09,04,15.40
2018,09,28,09,05,15.40
2018,09,28,09,06,15.40
2018,09,28,09,07,15.40
2018,09,28,09,08,15.40
2018,09,28,09,09,15.40
2018,09,28,09,10,15.40
2018,09,28,09,11,15.50
2018,09,28,09,12,15.40
2018,09,28,09,13,15.40
2018,09,28,09,14,15.40
2018,09,28,09,15,15.40
2018,09,28,09,16,15.40
2018,09,28,09,17,15.40
2018,09,28,09,18,15.40
2018,09,28,09,19,15.40
2018,09,28,09,20,15.40
2018,09,28,09,21,15.40
2018,09,28,09,22,15.40
2018,09,28,09,23,15.50
2018,09,28,09,24,15.50
2018,09,28,09,25,15.50
2018,09,28,09,26,15.60
2018,09,28,09,27,15.60
2018,09,28,09,28,15.60
2018,09,28,09,29,15.60
2018,09,28,09,30,15.70
2018,09,28,09,31,15.70
2018,09,28,09,32,15.80
2018,09,28,09,33,15.80
2018,09,28,09,34,15.80
2018,09,28,09,35,15.80
2018,09,28,09,36,15.80
2018,09,28,09,37,15.80
2018,09,28,09,38,15.80
2018,09,28,09,39,15.80
2018,09,28,09,40,15.70
2018,09,28,09,41,15.70
2018,09,28,09,42,15.70
2018,09,28,09,43,15.70
2018,09,28,09,44,15.70
2018,09,28,09,45,15.70
2018,09,28,09,46,15.70
2018,09,28,09,47,15.70
2018,09,28,09,48,15.70
2018,09,28,09,49,15.80
2018,09,28,09,50,15.80
2018,09,28,09,51,15.80
2018,09,28,09,52,15.80
2018,09,28,09,53,15.90
2018,09,28,09,54,15.90
2018,09,28,09,55,16.00
2018,09,28,09,56,16.00
2018,09,28,09,57,16.10
2018,09,28,09,58,16.10
2018,09,28,09,59,16.20
2018,09,28,10,00,16.20
2018,09,28,10,01,16.30
2018,09,28,10,02,16.40
2018,09,28,10,03,16.40
2018,09,28,10,04,16.50
2018,09,28,10,05,16.50
2018,09,28,10,06,16.50
2018,09,28,10,07,16.60
2018,09,28,10,08,16.60
2018,09,28,10,09,16.60
2018,09,28,10,10,16.60
2018,09,28,10,11,16.70
2018,09,28,10,12,16.70
2018,09,28,10,13,16.70
2018,09,28,10,14,16.70
2018,09,28,10,15,16.70
2018,09,28,10,16,16.70
2018,09,28,10,17,16.70
2018,09,28,10,18,16.70
2018,09,28,10,19,16.70
2018,09,28,10,20,16.80
2018,09,28,10,21,16.80
2018,09,28,10,22,16.90
2018,09,28,10,23,16.90
2018,09,28,10,24,17.00
2018,09,28,10,25,17.00
2018,09,28,10,26,17.00
2018,09,28,10,27,17.10
2018,09,28,10,28,17.10
2018,09,28,10,29,17.20
2018,09,28,10,30,17.20
2018,09,28,10,31,17.30
2018,09,28,10,32,17.30
2018,09,28,10,33,17.30
2018,09,28,10,34,17.30
2018,09,28,10,35,17.30
2018,09,28,10,36,17.30
2018,09,28,10,37,17.30
2018,09,28,10,38,17.30
2018,09,28,10,39,17.30
2018,09,28,10,40,17.30
2018,09,28,10,41,17.30
2018,09,28,10,42,17.30
2018,09,28,10,43,17.30
2018,09,28,10,44,17.40
2018,09,28,10,45,17.40
2018,09,28,10,46,17.40
2018,09,28,10,47,17.40
2018,09,28,10,48,17.40
2018,09,28,10,49,17.50
2018,09,28,10,50,17.50
2018,09,28,10,51,17.60
2018,09,28,10,52,17.60
2018,09,28,10,53,17.60
2018,09,28,10,54,17.70
2018,09,28,10,55,17.70
2018,09,28,10,56,17.70
2018,09,28,10,57,17.70
2018,09,28,10,58,17.70
2018,09,28,10,59,17.70
2018,09,28,11,00,17.70
2018,09,28,11,01,17.70
2018,09,28,11,02,17.80
2018,09,28,11,03,17.80
2018,09,28,11,04,17.80
2018,09,28,11,05,17.80
2018,09,28,11,06,17.90
2018,09,28,11,07,17.90
2018,09,28,11,08,18.00
2018,09,28,11,09,18.00
2018,09,28,11,10,18.00
2018,09,28,11,11,18.10
2018,09,28,11,12,18.10
2018,09,28,11,13,18.10
2018,09,28,11,14,18.10
2018,09,28,11,15,18.10
2018,09,28,11,16,18.20
2018,09,28,11,17,18.20
2018,09,28,11,18,18.30
2018,09,28,11,19,18.30
2018,09,28,11,20,18.40
2018,09,28,11,21,18.40
2018,09,28,11,22,18.50
2018,09,28,11,23,18.50
2018,09,28,11,24,18.60
2018,09,28,11,25,18.60
2018,09,28,11,26,18.60
2018,09,28,11,27,18.60
2018,09,28,11,28,18.60
2018,09,28,11,29,18.70
2018,09,28,11,30,18.70
2018,09,28,11,31,18.70
2018,09,28,11,32,18.80
2018,09,28,11,33,18.80
2018,09,28,11,34,18.80
2018,09,28,11,35,18.90
2018,09,28,11,36,19.00
2018,09,28,11,37,19.00
2018,09,28,11,38,19.00
2018,09,28,11,39,19.10
2018,09,28,11,40,19.20
2018,09,28,11,41,19.20
2018,09,28,11,42,19.30
2018,09,28,11,43,19.30
2018,09,28,11,44,19.40
2018,09,28,11,45,19.40
2018,09,28,11,46,19.40
2018,09,28,11,47,19.40
2018,09,28,11,48,19.50
2018,09,28,11,49,19.50
2018,09,28,11,50,19.50
2018,09,28,11,51,19.60
2018,09,28,11,52,19.60
2018,09,28,11,53,19.70
2018,09,28,11,54,19.70
2018,09,28,11,55,19.70
2018,09,28,11,56,19.80
2018,09,28,11,57,19.90
2018,09,28,11,58,19.90
2018,09,28,11,59,19.90
2018,09,28,12,00,19.90
2018,09,28,12,01,19.90
2018,09,28,12,02,19.90
2018,09,28,12,03,19.90
2018,09,28,12,04,19.90
2018,09,28,12,05,19.90
2018,09,28,12,06,19.90
2018,09,28,12,07,19.90
2018,09,28,12,08,19.90
2018,09,28,12,09,19.90
2018,09,28,12,10,19.90
2018,09,28,12,11,19.90
2018,09,28,12,12,19.80
2018,09,28,12,13,19.80
2018,09,28,12,14,19.80
2018,09,28,12,15,19.80
2018,09,28,12,16,19.90
2018,09,28,12,17,19.90
2018,09,28,12,18,19.90
2018,09,28,12,19,19.90
2018,09,28,12,20,19.90
2018,09,28,12,21,20.00
2018,09,28,12,22,20.00
2018,09,28,12,23,20.00
2018,09,28,12,24,20.00
2018,09,28,12,25,20.10
2018,09,28,12,26,20.10
2018,09,28,12,27,20.20
2018,09,28,12,28,20.20
2018,09,28,12,29,20.20
2018,09,28,12,30,20.30
2018,09,28,12,31,20.30
2018,09,28,12,32,20.40
2018,09,28,12,33,20.50
2018,09,28,12,34,20.60
2018,09,28,12,35,20.60
2018,09,28,12,36,20.70
2018,09,28,12,37,20.70
2018,09,28,12,38,20.70
2018,09,28,12,39,20.70
2018,09,28,12,40,20.70
2018,09,28,12,41,20.70
2018,09,28,12,42,20.70
2018,09,28,12,43,20.70
2018,09,28,12,44,20.70
2018,09,28,12,45,20.70
2018,09,28,12,46,20.70
2018,09,28,12,47,20.70
2018,09,28,12,48,20.80
2018,09,28,12,49,20.80
2018,09,28,12,50,20.80
2018,09,28,12,51,20.80
2018,09,28,12,52,20.80
2018,09,28,12,53,20.80
2018,09,28,12,54,20.90
2018,09,28,12,55,20.90
2018,09,28,12,56,20.90
2018,09,28,12,57,21.00
2018,09,28,12,58,21.00
2018,09,28,12,59,21.00
2018,09,28,13,00,21.00
2018,09,28,13,01,21.10
2018,09,28,13,02,21.00
2018,09,28,13,03,21.00
2018,09,28,13,04,21.00
2018,09,28,13,05,21.00
2018,09,28,13,06,20.90
2018,09,28,13,07,20.90
2018,09,28,13,08,20.90
2018,09,28,13,09,20.90
2018,09,28,13,10,20.90
2018,09,28,13,11,20.90
2018,09,28,13,12,20.90
2018,09,28,13,13,20.90
2018,09,28,13,14,20.90
2018,09,28,13,15,20.90
2018,09,28,13,16,20.90
2018,09,28,13,17,20.80
2018,09,28,13,18,20.80
2018,09,28,13,19,20.80
2018,09,28,13,20,20.80
2018,09,28,13,21,20.80
2018,09,28,13,22,20.80
2018,09,28,13,23,20.90
2018,09,28,13,24,20.90
2018,09,28,13,25,20.90
2018,09,28,13,26,20.90
2018,09,28,13,27,20.90
2018,09,28,13,28,20.90
2018,09,28,13,29,20.90
2018,09,28,13,30,20.90
2018,09,28,13,31,20.80
2018,09,28,13,32,20.80
2018,09,28,13,33,20.80
2018,09,28,13,34,20.80
2018,09,28,13,35,20.80
2018,09,28,13,36,20.80
2018,09,28,13,37,20.70
2018,09,28,13,38,20.70
2018,09,28,13,39,20.70
2018,09,28,13,40,20.70
2018,09,28,13,41,20.70
2018,09,28,13,42,20.70
2018,09,28,13,43,20.70
2018,09,28,13,44,20.70
2018,09,28,13,45,20.70
2018,09,28,13,46,20.80
2018,09,28,13,47,20.80
2018,09,28,13,48,20.80
2018,09,28,13,49,20.90
2018,09,28,13,50,20.90
2018,09,28,13,51,21.00
2018,09,28,13,52,21.00
2018,09,28,13,53,21.10
2018,09,28,13,54,21.00
2018,09,28,13,55,21.00
2018,09,28,13,56,21.00
2018,09,28,13,57,21.10
2018,09,28,13,58,21.10
2018,09,28,13,59,21.10
2018,09,28,14,00,21.10
2018,09,28,14,01,21.20
2018,09,28,14,02,21.10
2018,09,28,14,03,21.10
2018,09,28,14,04,21.10
2018,09,28,14,05,21.10
2018,09,28,14,06,21.20
2018,09,28,14,07,21.20
2018,09,28,14,08,21.20
2018,09,28,14,09,21.30
2018,09,28,14,10,21.30
2018,09,28,14,11,21.30
2018,09,28,14,12,21.30
2018,09,28,14,13,21.40
2018,09,28,14,14,21.40
2018,09,28,14,15,21.40
2018,09,28,14,16,21.50
2018,09,28,14,17,21.50
2018,09,28,14,18,21.60
2018,09,28,14,19,21.60
2018,09,28,14,20,21.60
2018,09,28,14,21,21.60
2018,09,28,14,22,21.60
2018,09,28,14,23,21.60
2018,09,28,14,24,21.70
2018,09,28,14,25,21.70
2018,09,28,14,26,21.70
2018,09,28,14,27,21.70
2018,09,28,14,28,21.70
2018,09,28,14,29,21.70
2018,09,28,14,30,21.70
2018,09,28,14,31,21.70
2018,09,28,14,32,21.70
2018,09,28,14,33,21.70
2018,09,28,14,34,21.60
2018,09,28,14,35,21.70
2018,09,28,14,36,21.60
2018,09,28,14,37,21.60
2018,09,28,14,38,21.60
2018,09,28,14,39,21.50
2018,09,28,14,40,21.40
2018,09,28,14,41,21.30
2018,09,28,14,42,21.30
2018,09,28,14,43,21.30
2018,09,28,14,44,21.30
2018,09,28,14,45,21.30
2018,09,28,14,46,21.30
2018,09,28,14,47,21.40
2018,09,28,14,48,21.40
2018,09,28,14,49,21.40
2018,09,28,14,50,21.50
2018,09,28,14,51,21.50
2018,09,28,14,52,21.50
2018,09,28,14,53,21.60
2018,09,28,14,54,21.60
2018,09,28,14,55,21.60
2018,09,28,14,56,21.60
2018,09,28,14,57,21.60
2018,09,28,14,58,21.60
2018,09,28,14,59,21.60
2018,09,28,15,00,21.50
2018,09,28,15,01,21.50
2018,09,28,15,02,21.50
2018,09,28,15,03,21.60
2018,09,28,15,04,21.60
2018,09,28,15,05,21.60
2018,09,28,15,06,21.60
2018,09,28,15,07,21.60
2018,09,28,15,08,21.70
2018,09,28,15,09,21.70
2018,09,28,15,10,21.70
2018,09,28,15,11,21.80
2018,09,28,15,12,21.80
2018,09,28,15,13,21.80
2018,09,28,15,14,21.80
2018,09,28,15,15,21.90
2018,09,28,15,16,21.90
2018,09,28,15,17,22.00
2018,09,28,15,18,22.00
2018,09,28,15,19,22.00
2018,09,28,15,20,22.00
2018,09,28,15,21,22.10
2018,09,28,15,22,22.10
2018,09,28,15,23,22.10
2018,09,28,15,24,22.10
2018,09,28,15,25,22.20
2018,09,28,15,26,22.20
2018,09,28,15,27,22.30
2018,09,28,15,28,22.30
2018,09,28,15,29,22.40
2018,09,28,15,30,22.40
2018,09,28,15,31,22.40
2018,09,28,15,32,22.50
2018,09,28,15,33,22.50
2018,09,28,15,34,22.50
2018,09,28,15,35,22.50
2018,09,28,15,36,22.50
2018,09,28,15,37,22.50
2018,09,28,15,38,22.60
2018,09,28,15,39,22.60
2018,09,28,15,40,22.70
2018,09,28,15,41,22.70
2018,09,28,15,42,22.70
2018,09,28,15,43,22.80
2018,09,28,15,44,22.70
2018,09,28,15,45,22.70
2018,09,28,15,46,22.70
2018,09,28,15,47,22.70
2018,09,28,15,48,22.70
2018,09,28,15,49,22.70
2018,09,28,15,50,22.70
2018,09,28,15,51,22.70
2018,09,28,15,52,22.60
2018,09,28,15,53,22.60
2018,09,28,15,54,22.60
2018,09,28,15,55,22.60
2018,09,28,15,56,22.60
2018,09,28,15,57,22.70
2018,09,28,15,58,22.70
2018,09,28,15,59,22.70
2018,09,28,16,00,22.80
2018,09,28,16,01,22.80
2018,09,28,16,02,22.80
2018,09,28,16,03,22.90
2018,09,28,16,04,22.90
2018,09,28,16,05,22.90
2018,09,28,16,06,22.90
2018,09,28,16,07,22.90
2018,09,28,16,08,22.90
2018,09,28,16,09,22.90
2018,09,28,16,10,22.90
2018,09,28,16,11,22.90
2018,09,28,16,12,22.80
2018,09,28,16,13,22.80
2018,09,28,16,14,22.80
2018,09,28,16,15,22.80
2018,09,28,16,16,22.90
2018,09,28,16,17,22.90
2018,09,28,16,18,22.90
2018,09,28,16,19,22.90
2018,09,28,16,20,22.80
2018,09,28,16,21,22.80
2018,09,28,16,22,22.80
2018,09,28,16,23,22.70
2018,09,28,16,24,22.80
2018,09,28,16,25,22.80
2018,09,28,16,26,22.80
2018,09,28,16,27,22.80
2018,09,28,16,28,22.80
2018,09,28,16,29,22.80
2018,09,28,16,30,22.90
2018,09,28,16,31,22.90
2018,09,28,16,32,22.90
2018,09,28,16,33,23.00
2018,09,28,16,34,23.00
2018,09,28,16,35,23.00
2018,09,28,16,36,23.10
2018,09,28,16,37,23.10
2018,09,28,16,38,23.10
2018,09,28,16,39,23.10
2018,09,28,16,40,23.10
2018,09,28,16,41,23.10
2018,09,28,16,42,23.10
2018,09,28,16,43,23.00
2018,09,28,16,44,23.00
2018,09,28,16,45,23.00
2018,09,28,16,46,22.90
2018,09,28,16,47,22.90
2018,09,28,16,48,22.90
2018,09,28,16,49,22.80
2018,09,28,16,50,22.80
2018,09,28,16,51,22.80
2018,09,28,16,52,22.70
2018,09,28,16,53,22.70
2018,09,28,16,54,22.60
2018,09,28,16,55,22.60
2018,09,28,16,56,22.60
2018,09,28,16,57,22.50
2018,09,28,16,58,22.50
2018,09,28,16,59,22.50
2018,09,28,17,00,22.50
2018,09,28,17,01,22.50
2018,09,28,17,02,22.50
2018,09,28,17,03,22.40
2018,09,28,17,04,22.40
2018,09,28,17,05,22.40
2018,09,28,17,06,22.30
2018,09,28,17,07,22.30
2018,09,28,17,08,22.30
2018,09,28,17,09,22.20
2018,09,28,17,10,22.20
2018,09,28,17,11,22.20
2018,09,28,17,12,22.20
2018,09,28,17,13,22.20
2018,09,28,17,14,22.10
2018,09,28,17,15,22.10
2018,09,28,17,16,22.10
2018,09,28,17,17,22.10
2018,09,28,17,18,22.00
2018,09,28,17,19,22.00